Year,Month,Day,Hour,Minute,Value (Times are PST for temperature in C)
2020,01,04,00,00,6.90
2020,01,04,00,01,6.90
2020,01,04,00,02,6.80
2020,01,04,00,03,6.80
2020,01,04,00,04,6.80
2020,01,04,00,05,6.70
2020,01,04,00,06,6.70
2020,01,04,00,07,6.60
2020,01,04,00,08,6.60
2020,01,04,00,09,6.60
2020,01,04,00,10,6.50
2020,01,04,00,11,6.50
2020,01,04,00,12,6.40
2020,01,04,00,13,6.40
2020,01,04,00,14,6.40
2020,01,04,00,15,6.40
2020,01,04,00,16,6.30
2020,01,04,00,17,6.30
2020,01,04,00,18,6.30
2020,01,04,00,19,6.30
2020,01,04,00,20,6.30
2020,01,04,00,21,6.30
2020,01,04,00,22,6.30
2020,01,04,00,23,6.30
2020,01,04,00,24,6.30
2020,01,04,00,25,6.30
2020,01,04,00,26,6.30
2020,01,04,00,27,6.30
2020,01,04,00,28,6.30
2020,01,04,00,29,6.30
2020,01,04,00,30,6.30
2020,01,04,00,31,6.30
2020,01,04,00,32,6.30
2020,01,04,00,33,6.40
2020,01,04,00,34,6.40
2020,01,04,00,35,6.40
2020,01,04,00,36,6.50
2020,01,04,00,37,6.50
2020,01,04,00,38,6.50
2020,01,04,00,39,6.50
2020,01,04,00,40,6.50
2020,01,04,00,41,6.60
2020,01,04,00,42,6.60
2020,01,04,00,43,6.60
2020,01,04,00,44,6.60
2020,01,04,00,45,6.70
2020,01,04,00,46,6.70
2020,01,04,00,47,6.70
2020,01,04,00,48,6.70
2020,01,04,00,49,6.70
2020,01,04,00,50,6.70
2020,01,04,00,51,6.80
2020,01,04,00,52,6.80
2020,01,04,00,53,6.80
2020,01,04,00,54,6.80
2020,01,04,00,55,6.70
2020,01,04,00,56,6.70
2020,01,04,00,57,6.70
2020,01,04,00,58,6.60
2020,01,04,00,59,6.60
2020,01,04,01,00,6.60
2020,01,04,01,01,6.60
2020,01,04,01,02,6.50
2020,01,04,01,03,6.50
2020,01,04,01,04,6.50
2020,01,04,01,05,6.50
2020,01,04,01,06,6.40
2020,01,04,01,07,6.40
2020,01,04,01,08,6.40
2020,01,04,01,09,6.40
2020,01,04,01,10,6.40
2020,01,04,01,11,6.40
2020,01,04,01,12,6.40
2020,01,04,01,13,6.40
2020,01,04,01,14,6.40
2020,01,04,01,15,6.40
2020,01,04,01,16,6.40
2020,01,04,01,17,6.40
2020,01,04,01,18,6.40
2020,01,04,01,19,6.40
2020,01,04,01,20,6.40
2020,01,04,01,21,6.50
2020,01,04,01,22,6.50
2020,01,04,01,23,6.50
2020,01,04,01,24,6.60
2020,01,04,01,25,6.60
2020,01,04,01,26,6.70
2020,01,04,01,27,6.70
2020,01,04,01,28,6.70
2020,01,04,01,29,6.70
2020,01,04,01,30,6.70
2020,01,04,01,31,6.70
2020,01,04,01,32,6.80
2020,01,04,01,33,6.80
2020,01,04,01,34,6.80
2020,01,04,01,35,6.80
2020,01,04,01,36,6.80
2020,01,04,01,37,6.80
2020,01,04,01,38,6.80
2020,01,04,01,39,6.80
2020,01,04,01,40,6.80
2020,01,04,01,41,6.90
2020,01,04,01,42,6.90
2020,01,04,01,43,6.80
2020,01,04,01,44,6.80
2020,01,04,01,45,6.80
2020,01,04,01,46,6.80
2020,01,04,01,47,6.80
2020,01,04,01,48,6.80
2020,01,04,01,49,6.70
2020,01,04,01,50,6.70
2020,01,04,01,51,6.60
2020,01,04,01,52,6.60
2020,01,04,01,53,6.60
2020,01,04,01,54,6.50
2020,01,04,01,55,6.50
2020,01,04,01,56,6.40
2020,01,04,01,57,6.40
2020,01,04,01,58,6.30
2020,01,04,01,59,6.30
2020,01,04,02,00,6.30
2020,01,04,02,01,6.20
2020,01,04,02,02,6.20
2020,01,04,02,03,6.20
2020,01,04,02,04,6.20
2020,01,04,02,05,6.20
2020,01,04,02,06,6.20
2020,01,04,02,07,6.20
2020,01,04,02,08,6.30
2020,01,04,02,09,6.30
2020,01,04,02,10,6.30
2020,01,04,02,11,6.30
2020,01,04,02,12,6.30
2020,01,04,02,13,6.40
2020,01,04,02,14,6.40
2020,01,04,02,15,6.40
2020,01,04,02,16,6.40
2020,01,04,02,17,6.40
2020,01,04,02,18,6.50
2020,01,04,02,19,6.50
2020,01,04,02,20,6.50
2020,01,04,02,21,6.40
2020,01,04,02,22,6.40
2020,01,04,02,23,6.40
2020,01,04,02,24,6.40
2020,01,04,02,25,6.40
2020,01,04,02,26,6.40
2020,01,04,02,27,6.40
2020,01,04,02,28,6.50
2020,01,04,02,29,6.40
2020,01,04,02,30,6.40
2020,01,04,02,31,6.40
2020,01,04,02,32,6.40
2020,01,04,02,33,6.50
2020,01,04,02,34,6.50
2020,01,04,02,35,6.50
2020,01,04,02,36,6.50
2020,01,04,02,37,6.50
2020,01,04,02,38,6.50
2020,01,04,02,39,6.50
2020,01,04,02,40,6.50
2020,01,04,02,41,6.50
2020,01,04,02,42,6.50
2020,01,04,02,43,6.50
2020,01,04,02,44,6.50
2020,01,04,02,45,6.50
2020,01,04,02,46,6.50
2020,01,04,02,47,6.50
2020,01,04,02,48,6.60
2020,01,04,02,49,6.50
2020,01,04,02,50,6.50
2020,01,04,02,51,6.50
2020,01,04,02,52,6.50
2020,01,04,02,53,6.60
2020,01,04,02,54,6.60
2020,01,04,02,55,6.50
2020,01,04,02,56,6.50
2020,01,04,02,57,6.50
2020,01,04,02,58,6.40
2020,01,04,02,59,6.40
2020,01,04,03,00,6.40
2020,01,04,03,01,6.40
2020,01,04,03,02,6.40
2020,01,04,03,03,6.40
2020,01,04,03,04,6.40
2020,01,04,03,05,6.40
2020,01,04,03,06,6.40
2020,01,04,03,07,6.40
2020,01,04,03,08,6.50
2020,01,04,03,09,6.50
2020,01,04,03,10,6.40
2020,01,04,03,11,6.40
2020,01,04,03,12,6.40
2020,01,04,03,13,6.40
2020,01,04,03,14,6.50
2020,01,04,03,15,6.50
2020,01,04,03,16,6.40
2020,01,04,03,17,6.40
2020,01,04,03,18,6.40
2020,01,04,03,19,6.30
2020,01,04,03,20,6.20
2020,01,04,03,21,6.20
2020,01,04,03,22,6.10
2020,01,04,03,23,6.00
2020,01,04,03,24,6.00
2020,01,04,03,25,6.00
2020,01,04,03,26,6.00
2020,01,04,03,27,6.10
2020,01,04,03,28,6.10
2020,01,04,03,29,6.20
2020,01,04,03,30,6.20
2020,01,04,03,31,6.20
2020,01,04,03,32,6.30
2020,01,04,03,33,6.30
2020,01,04,03,34,6.30
2020,01,04,03,35,6.20
2020,01,04,03,36,6.20
2020,01,04,03,37,6.20
2020,01,04,03,38,6.10
2020,01,04,03,39,6.10
2020,01,04,03,40,6.10
2020,01,04,03,41,6.10
2020,01,04,03,42,6.10
2020,01,04,03,43,6.10
2020,01,04,03,44,6.10
2020,01,04,03,45,6.10
2020,01,04,03,46,6.10
2020,01,04,03,47,6.10
2020,01,04,03,48,6.10
2020,01,04,03,49,6.10
2020,01,04,03,50,6.00
2020,01,04,03,51,6.00
2020,01,04,03,52,6.00
2020,01,04,03,53,5.90
2020,01,04,03,54,5.90
2020,01,04,03,55,5.90
2020,01,04,03,56,5.90
2020,01,04,03,57,5.90
2020,01,04,03,58,5.90
2020,01,04,03,59,5.90
2020,01,04,04,00,5.90
2020,01,04,04,01,5.90
2020,01,04,04,02,5.90
2020,01,04,04,03,5.90
2020,01,04,04,04,5.90
2020,01,04,04,05,5.90
2020,01,04,04,06,5.90
2020,01,04,04,07,5.90
2020,01,04,04,08,6.00
2020,01,04,04,09,6.00
2020,01,04,04,10,6.00
2020,01,04,04,11,6.00
2020,01,04,04,12,5.90
2020,01,04,04,13,5.90
2020,01,04,04,14,5.90
2020,01,04,04,15,5.90
2020,01,04,04,16,5.90
2020,01,04,04,17,5.90
2020,01,04,04,18,5.90
2020,01,04,04,19,5.90
2020,01,04,04,20,5.90
2020,01,04,04,21,5.90
2020,01,04,04,22,5.90
2020,01,04,04,23,5.90
2020,01,04,04,24,5.90
2020,01,04,04,25,5.90
2020,01,04,04,26,5.90
2020,01,04,04,27,5.90
2020,01,04,04,28,5.90
2020,01,04,04,29,5.90
2020,01,04,04,30,5.90
2020,01,04,04,31,5.90
2020,01,04,04,32,5.90
2020,01,04,04,33,5.90
2020,01,04,04,34,5.90
2020,01,04,04,35,5.90
2020,01,04,04,36,5.90
2020,01,04,04,37,5.80
2020,01,04,04,38,5.70
2020,01,04,04,39,5.70
2020,01,04,04,40,5.60
2020,01,04,04,41,5.60
2020,01,04,04,42,5.60
2020,01,04,04,43,5.60
2020,01,04,04,44,5.60
2020,01,04,04,45,5.60
2020,01,04,04,46,5.60
2020,01,04,04,47,5.50
2020,01,04,04,48,5.50
2020,01,04,04,49,5.50
2020,01,04,04,50,5.50
2020,01,04,04,51,5.60
2020,01,04,04,52,5.60
2020,01,04,04,53,5.70
2020,01,04,04,54,5.70
2020,01,04,04,55,5.70
2020,01,04,04,56,5.80
2020,01,04,04,57,5.80
2020,01,04,04,58,5.80
2020,01,04,04,59,5.80
2020,01,04,05,00,5.80
2020,01,04,05,01,5.80
2020,01,04,05,02,5.90
2020,01,04,05,03,5.90
2020,01,04,05,04,5.90
2020,01,04,05,05,6.00
2020,01,04,05,06,6.00
2020,01,04,05,07,6.10
2020,01,04,05,08,6.10
2020,01,04,05,09,6.10
2020,01,04,05,10,6.10
2020,01,04,05,11,6.10
2020,01,04,05,12,6.10
2020,01,04,05,13,6.10
2020,01,04,05,14,6.10
2020,01,04,05,15,6.10
2020,01,04,05,16,6.20
2020,01,04,05,17,6.10
2020,01,04,05,18,6.10
2020,01,04,05,19,6.10
2020,01,04,05,20,6.10
2020,01,04,05,21,6.10
2020,01,04,05,22,6.00
2020,01,04,05,23,6.00
2020,01,04,05,24,6.00
2020,01,04,05,25,5.90
2020,01,04,05,26,5.90
2020,01,04,05,27,5.90
2020,01,04,05,28,5.90
2020,01,04,05,29,5.80
2020,01,04,05,30,5.80
2020,01,04,05,31,5.80
2020,01,04,05,32,5.80
2020,01,04,05,33,5.70
2020,01,04,05,34,5.70
2020,01,04,05,35,5.60
2020,01,04,05,36,5.60
2020,01,04,05,37,5.50
2020,01,04,05,38,5.40
2020,01,04,05,39,5.40
2020,01,04,05,40,5.40
2020,01,04,05,41,5.30
2020,01,04,05,42,5.20
2020,01,04,05,43,5.20
2020,01,04,05,44,5.10
2020,01,04,05,45,5.00
2020,01,04,05,46,5.00
2020,01,04,05,47,4.90
2020,01,04,05,48,4.80
2020,01,04,05,49,4.80
2020,01,04,05,50,4.80
2020,01,04,05,51,4.80
2020,01,04,05,52,4.80
2020,01,04,05,53,4.80
2020,01,04,05,54,4.80
2020,01,04,05,55,4.80
2020,01,04,05,56,4.90
2020,01,04,05,57,4.90
2020,01,04,05,58,5.00
2020,01,04,05,59,5.00
2020,01,04,06,00,5.00
2020,01,04,06,01,5.10
2020,01,04,06,02,5.10
2020,01,04,06,03,5.10
2020,01,04,06,04,5.10
2020,01,04,06,05,5.20
2020,01,04,06,06,5.20
2020,01,04,06,07,5.20
2020,01,04,06,08,5.20
2020,01,04,06,09,5.20
2020,01,04,06,10,5.30
2020,01,04,06,11,5.30
2020,01,04,06,12,5.20
2020,01,04,06,13,5.20
2020,01,04,06,14,5.20
2020,01,04,06,15,5.20
2020,01,04,06,16,5.20
2020,01,04,06,17,5.30
2020,01,04,06,18,5.30
2020,01,04,06,19,5.20
2020,01,04,06,20,5.20
2020,01,04,06,21,5.20
2020,01,04,06,22,5.10
2020,01,04,06,23,5.10
2020,01,04,06,24,5.10
2020,01,04,06,25,5.10
2020,01,04,06,26,5.00
2020,01,04,06,27,5.00
2020,01,04,06,28,4.90
2020,01,04,06,29,4.80
2020,01,04,06,30,4.80
2020,01,04,06,31,4.70
2020,01,04,06,32,4.70
2020,01,04,06,33,4.60
2020,01,04,06,34,4.50
2020,01,04,06,35,4.50
2020,01,04,06,36,4.50
2020,01,04,06,37,4.40
2020,01,04,06,38,4.40
2020,01,04,06,39,4.30
2020,01,04,06,40,4.30
2020,01,04,06,41,4.20
2020,01,04,06,42,4.20
2020,01,04,06,43,4.20
2020,01,04,06,44,4.10
2020,01,04,06,45,4.10
2020,01,04,06,46,4.10
2020,01,04,06,47,4.10
2020,01,04,06,48,4.10
2020,01,04,06,49,4.10
2020,01,04,06,50,4.10
2020,01,04,06,51,4.10
2020,01,04,06,52,4.10
2020,01,04,06,53,4.10
2020,01,04,06,54,4.10
2020,01,04,06,55,4.10
2020,01,04,06,56,4.10
2020,01,04,06,57,4.10
2020,01,04,06,58,4.10
2020,01,04,06,59,4.00
2020,01,04,07,00,4.00
2020,01,04,07,01,4.10
2020,01,04,07,02,4.00
2020,01,04,07,03,4.00
2020,01,04,07,04,4.00
2020,01,04,07,05,4.00
2020,01,04,07,06,4.00
2020,01,04,07,07,4.00
2020,01,04,07,08,4.00
2020,01,04,07,09,4.00
2020,01,04,07,10,4.00
2020,01,04,07,11,4.00
2020,01,04,07,12,4.10
2020,01,04,07,13,4.10
2020,01,04,07,14,4.10
2020,01,04,07,15,4.10
2020,01,04,07,16,4.10
2020,01,04,07,17,4.10
2020,01,04,07,18,4.10
2020,01,04,07,19,4.10
2020,01,04,07,20,4.10
2020,01,04,07,21,4.10
2020,01,04,07,22,4.10
2020,01,04,07,23,4.10
2020,01,04,07,24,4.10
2020,01,04,07,25,4.10
2020,01,04,07,26,4.10
2020,01,04,07,27,4.10
2020,01,04,07,28,4.10
2020,01,04,07,29,4.10
2020,01,04,07,30,4.10
2020,01,04,07,31,4.10
2020,01,04,07,32,4.10
2020,01,04,07,33,4.20
2020,01,04,07,34,4.20
2020,01,04,07,35,4.20
2020,01,04,07,36,4.20
2020,01,04,07,37,4.20
2020,01,04,07,38,4.20
2020,01,04,07,39,4.20
2020,01,04,07,40,4.20
2020,01,04,07,41,4.20
2020,01,04,07,42,4.20
2020,01,04,07,43,4.20
2020,01,04,07,44,4.20
2020,01,04,07,45,4.20
2020,01,04,07,46,4.20
2020,01,04,07,47,4.20
2020,01,04,07,48,4.20
2020,01,04,07,49,4.20
2020,01,04,07,50,4.20
2020,01,04,07,51,4.20
2020,01,04,07,52,4.20
2020,01,04,07,53,4.20
2020,01,04,07,54,4.20
2020,01,04,07,55,4.20
2020,01,04,07,56,4.20
2020,01,04,07,57,4.30
2020,01,04,07,58,4.20
2020,01,04,07,59,4.30
2020,01,04,08,00,4.20
2020,01,04,08,01,4.30
2020,01,04,08,02,4.30
2020,01,04,08,03,4.20
2020,01,04,08,04,4.20
2020,01,04,08,05,4.20
2020,01,04,08,06,4.20
2020,01,04,08,07,4.20
2020,01,04,08,08,4.20
2020,01,04,08,09,4.20
2020,01,04,08,10,4.20
2020,01,04,08,11,4.20
2020,01,04,08,12,4.20
2020,01,04,08,13,4.20
2020,01,04,08,14,4.20
2020,01,04,08,15,4.20
2020,01,04,08,16,4.20
2020,01,04,08,17,4.20
2020,01,04,08,18,4.20
2020,01,04,08,19,4.20
2020,01,04,08,20,4.20
2020,01,04,08,21,4.20
2020,01,04,08,22,4.20
2020,01,04,08,23,4.20
2020,01,04,08,24,4.20
2020,01,04,08,25,4.20
2020,01,04,08,26,4.20
2020,01,04,08,27,4.20
2020,01,04,08,28,4.20
2020,01,04,08,29,4.20
2020,01,04,08,30,4.20
2020,01,04,08,31,4.20
2020,01,04,08,32,4.30
2020,01,04,08,33,4.30
2020,01,04,08,34,4.30
2020,01,04,08,35,4.30
2020,01,04,08,36,4.30
2020,01,04,08,37,4.30
2020,01,04,08,38,4.30
2020,01,04,08,39,4.30
2020,01,04,08,40,4.30
2020,01,04,08,41,4.30
2020,01,04,08,42,4.30
2020,01,04,08,43,4.30
2020,01,04,08,44,4.30
2020,01,04,08,45,4.30
2020,01,04,08,46,4.30
2020,01,04,08,47,4.30
2020,01,04,08,48,4.40
2020,01,04,08,49,4.40
2020,01,04,08,50,4.40
2020,01,04,08,51,4.40
2020,01,04,08,52,4.40
2020,01,04,08,53,4.40
2020,01,04,08,54,4.40
2020,01,04,08,55,4.40
2020,01,04,08,56,4.40
2020,01,04,08,57,4.40
2020,01,04,08,58,4.40
2020,01,04,08,59,4.40
2020,01,04,09,00,4.50
2020,01,04,09,01,4.40
2020,01,04,09,02,4.50
2020,01,04,09,03,4.50
2020,01,04,09,04,4.50
2020,01,04,09,05,4.50
2020,01,04,09,06,4.50
2020,01,04,09,07,4.50
2020,01,04,09,08,4.60
2020,01,04,09,09,4.60
2020,01,04,09,10,4.60
2020,01,04,09,11,4.60
2020,01,04,09,12,4.60
2020,01,04,09,13,4.60
2020,01,04,09,14,4.70
2020,01,04,09,15,4.70
2020,01,04,09,16,4.70
2020,01,04,09,17,4.70
2020,01,04,09,18,4.70
2020,01,04,09,19,4.70
2020,01,04,09,20,4.70
2020,01,04,09,21,4.80
2020,01,04,09,22,4.80
2020,01,04,09,23,4.80
2020,01,04,09,24,4.80
2020,01,04,09,25,4.80
2020,01,04,09,26,4.90
2020,01,04,09,27,4.90
2020,01,04,09,28,5.00
2020,01,04,09,29,5.10
2020,01,04,09,30,5.10
2020,01,04,09,31,5.10
2020,01,04,09,32,5.20
2020,01,04,09,33,5.20
2020,01,04,09,34,5.20
2020,01,04,09,35,5.20
2020,01,04,09,36,5.20
2020,01,04,09,37,5.30
2020,01,04,09,38,5.30
2020,01,04,09,39,5.30
2020,01,04,09,40,5.40
2020,01,04,09,41,5.40
2020,01,04,09,42,5.40
2020,01,04,09,43,5.40
2020,01,04,09,44,5.40
2020,01,04,09,45,5.50
2020,01,04,09,46,5.50
2020,01,04,09,47,5.50
2020,01,04,09,48,5.60
2020,01,04,09,49,5.60
2020,01,04,09,50,5.70
2020,01,04,09,51,5.70
2020,01,04,09,52,5.60
2020,01,04,09,53,5.60
2020,01,04,09,54,5.60
2020,01,04,09,55,5.60
2020,01,04,09,56,5.60
2020,01,04,09,57,5.60
2020,01,04,09,58,5.60
2020,01,04,09,59,5.70
2020,01,04,10,00,5.70
2020,01,04,10,01,5.70
2020,01,04,10,02,5.70
2020,01,04,10,03,5.80
2020,01,04,10,04,5.80
2020,01,04,10,05,5.80
2020,01,04,10,06,5.80
2020,01,04,10,07,5.80
2020,01,04,10,08,5.90
2020,01,04,10,09,5.90
2020,01,04,10,10,6.00
2020,01,04,10,11,6.00
2020,01,04,10,12,6.00
2020,01,04,10,13,6.10
2020,01,04,10,14,6.10
2020,01,04,10,15,6.10
2020,01,04,10,16,6.20
2020,01,04,10,17,6.20
2020,01,04,10,18,6.20
2020,01,04,10,19,6.20
2020,01,04,10,20,6.30
2020,01,04,10,21,6.30
2020,01,04,10,22,6.30
2020,01,04,10,23,6.30
2020,01,04,10,24,6.30
2020,01,04,10,25,6.30
2020,01,04,10,26,6.40
2020,01,04,10,27,6.30
2020,01,04,10,28,6.30
2020,01,04,10,29,6.30
2020,01,04,10,30,6.30
2020,01,04,10,31,6.30
2020,01,04,10,32,6.30
2020,01,04,10,33,6.30
2020,01,04,10,34,6.30
2020,01,04,10,35,6.30
2020,01,04,10,36,6.30
2020,01,04,10,37,6.30
2020,01,04,10,38,6.30
2020,01,04,10,39,6.20
2020,01,04,10,40,6.20
2020,01,04,10,41,6.20
2020,01,04,10,42,6.20
2020,01,04,10,43,6.20
2020,01,04,10,44,6.20
2020,01,04,10,45,6.20
2020,01,04,10,46,6.30
2020,01,04,10,47,6.30
2020,01,04,10,48,6.30
2020,01,04,10,49,6.30
2020,01,04,10,50,6.40
2020,01,04,10,51,6.40
2020,01,04,10,52,6.40
2020,01,04,10,53,6.40
2020,01,04,10,54,6.40
2020,01,04,10,55,6.40
2020,01,04,10,56,6.40
2020,01,04,10,57,6.40
2020,01,04,10,58,6.40
2020,01,04,10,59,6.40
2020,01,04,11,00,6.50
2020,01,04,11,01,6.50
2020,01,04,11,02,6.40
2020,01,04,11,03,6.40
2020,01,04,11,04,6.40
2020,01,04,11,05,6.40
2020,01,04,11,06,6.40
2020,01,04,11,07,6.40
2020,01,04,11,08,6.40
2020,01,04,11,09,6.40
2020,01,04,11,10,6.30
2020,01,04,11,11,6.30
2020,01,04,11,12,6.30
2020,01,04,11,13,6.30
2020,01,04,11,14,6.30
2020,01,04,11,15,6.30
2020,01,04,11,16,6.30
2020,01,04,11,17,6.40
2020,01,04,11,18,6.40
2020,01,04,11,19,6.40
2020,01,04,11,20,6.50
2020,01,04,11,21,6.50
2020,01,04,11,22,6.50
2020,01,04,11,23,6.60
2020,01,04,11,24,6.60
2020,01,04,11,25,6.70
2020,01,04,11,26,6.70
2020,01,04,11,27,6.70
2020,01,04,11,28,6.80
2020,01,04,11,29,6.80
2020,01,04,11,30,6.80
2020,01,04,11,31,6.90
2020,01,04,11,32,6.90
2020,01,04,11,33,6.90
2020,01,04,11,34,6.90
2020,01,04,11,35,6.90
2020,01,04,11,36,6.90
2020,01,04,11,37,6.90
2020,01,04,11,38,6.90
2020,01,04,11,39,6.90
2020,01,04,11,40,6.90
2020,01,04,11,41,6.90
2020,01,04,11,42,6.90
2020,01,04,11,43,6.80
2020,01,04,11,44,6.80
2020,01,04,11,45,6.80
2020,01,04,11,46,6.80
2020,01,04,11,47,6.80
2020,01,04,11,48,6.80
2020,01,04,11,49,6.80
2020,01,04,11,50,6.80
2020,01,04,11,51,6.80
2020,01,04,11,52,6.80
2020,01,04,11,53,6.90
2020,01,04,11,54,6.90
2020,01,04,11,55,6.90
2020,01,04,11,56,7.00
2020,01,04,11,57,7.00
2020,01,04,11,58,7.00
2020,01,04,11,59,7.00
2020,01,04,12,00,7.00
2020,01,04,12,01,7.00
2020,01,04,12,02,7.00
2020,01,04,12,03,6.90
2020,01,04,12,04,6.90
2020,01,04,12,05,7.00
2020,01,04,12,06,6.90
2020,01,04,12,07,6.90
2020,01,04,12,08,6.90
2020,01,04,12,09,7.00
2020,01,04,12,10,6.90
2020,01,04,12,11,6.90
2020,01,04,12,12,6.90
2020,01,04,12,13,6.90
2020,01,04,12,14,6.90
2020,01,04,12,15,6.80
2020,01,04,12,16,6.80
2020,01,04,12,17,6.80
2020,01,04,12,18,6.80
2020,01,04,12,19,6.80
2020,01,04,12,20,6.70
2020,01,04,12,21,6.70
2020,01,04,12,22,6.70
2020,01,04,12,23,6.70
2020,01,04,12,24,6.70
2020,01,04,12,25,6.60
2020,01,04,12,26,6.60
2020,01,04,12,27,6.60
2020,01,04,12,28,6.50
2020,01,04,12,29,6.50
2020,01,04,12,30,6.50
2020,01,04,12,31,6.40
2020,01,04,12,32,6.40
2020,01,04,12,33,6.40
2020,01,04,12,34,6.30
2020,01,04,12,35,6.30
2020,01,04,12,36,6.20
2020,01,04,12,37,6.20
2020,01,04,12,38,6.10
2020,01,04,12,39,6.10
2020,01,04,12,40,6.00
2020,01,04,12,41,6.00
2020,01,04,12,42,5.90
2020,01,04,12,43,5.90
2020,01,04,12,44,5.80
2020,01,04,12,45,5.80
2020,01,04,12,46,5.80
2020,01,04,12,47,5.70
2020,01,04,12,48,5.60
2020,01,04,12,49,5.60
2020,01,04,12,50,5.50
2020,01,04,12,51,5.50
2020,01,04,12,52,5.40
2020,01,04,12,53,5.40
2020,01,04,12,54,5.40
2020,01,04,12,55,5.30
2020,01,04,12,56,5.30
2020,01,04,12,57,5.30
2020,01,04,12,58,5.20
2020,01,04,12,59,5.20
2020,01,04,13,00,5.20
2020,01,04,13,01,5.20
2020,01,04,13,02,5.10
2020,01,04,13,03,5.10
2020,01,04,13,04,5.10
2020,01,04,13,05,5.10
2020,01,04,13,06,5.10
2020,01,04,13,07,5.10
2020,01,04,13,08,5.00
2020,01,04,13,09,5.00
2020,01,04,13,10,5.00
2020,01,04,13,11,5.00
2020,01,04,13,12,5.00
2020,01,04,13,13,5.00
2020,01,04,13,14,5.00
2020,01,04,13,15,5.00
2020,01,04,13,16,5.00
2020,01,04,13,17,5.00
2020,01,04,13,18,4.90
2020,01,04,13,19,4.90
2020,01,04,13,20,4.90
2020,01,04,13,21,4.90
2020,01,04,13,22,4.90
2020,01,04,13,23,4.90
2020,01,04,13,24,4.90
2020,01,04,13,25,4.90
2020,01,04,13,26,4.90
2020,01,04,13,27,4.90
2020,01,04,13,28,4.90
2020,01,04,13,29,4.80
2020,01,04,13,30,4.90
2020,01,04,13,31,4.80
2020,01,04,13,32,4.80
2020,01,04,13,33,4.80
2020,01,04,13,34,4.80
2020,01,04,13,35,4.80
2020,01,04,13,36,4.80
2020,01,04,13,37,4.80
2020,01,04,13,38,4.70
2020,01,04,13,39,4.70
2020,01,04,13,40,4.70
2020,01,04,13,41,4.70
2020,01,04,13,42,4.70
2020,01,04,13,43,4.70
2020,01,04,13,44,4.70
2020,01,04,13,45,4.70
2020,01,04,13,46,4.70
2020,01,04,13,47,4.70
2020,01,04,13,48,4.70
2020,01,04,13,49,4.70
2020,01,04,13,50,4.60
2020,01,04,13,51,4.70
2020,01,04,13,52,4.70
2020,01,04,13,53,4.70
2020,01,04,13,54,4.70
2020,01,04,13,55,4.70
2020,01,04,13,56,4.70
2020,01,04,13,57,4.70
2020,01,04,13,58,4.60
2020,01,04,13,59,4.60
2020,01,04,14,00,4.60
2020,01,04,14,01,4.60
2020,01,04,14,02,4.60
2020,01,04,14,03,4.60
2020,01,04,14,04,4.60
2020,01,04,14,05,4.70
2020,01,04,14,06,4.70
2020,01,04,14,07,4.70
2020,01,04,14,08,4.70
2020,01,04,14,09,4.70
2020,01,04,14,10,4.70
2020,01,04,14,11,4.70
2020,01,04,14,12,4.70
2020,01,04,14,13,4.70
2020,01,04,14,14,4.70
2020,01,04,14,15,4.70
2020,01,04,14,16,4.70
2020,01,04,14,17,4.60
2020,01,04,14,18,4.60
2020,01,04,14,19,4.60
2020,01,04,14,20,4.60
2020,01,04,14,21,4.60
2020,01,04,14,22,4.60
2020,01,04,14,23,4.60
2020,01,04,14,24,4.60
2020,01,04,14,25,4.60
2020,01,04,14,26,4.60
2020,01,04,14,27,4.60
2020,01,04,14,28,4.60
2020,01,04,14,29,4.60
2020,01,04,14,30,4.50
2020,01,04,14,31,4.50
2020,01,04,14,32,4.50
2020,01,04,14,33,4.50
2020,01,04,14,34,4.60
2020,01,04,14,35,4.60
2020,01,04,14,36,4.60
2020,01,04,14,37,4.60
2020,01,04,14,38,4.60
2020,01,04,14,39,4.60
2020,01,04,14,40,4.60
2020,01,04,14,41,4.60
2020,01,04,14,42,4.60
2020,01,04,14,43,4.60
2020,01,04,14,44,4.60
2020,01,04,14,45,4.60
2020,01,04,14,46,4.70
2020,01,04,14,47,4.70
2020,01,04,14,48,4.70
2020,01,04,14,49,4.70
2020,01,04,14,50,4.70
2020,01,04,14,51,4.80
2020,01,04,14,52,4.80
2020,01,04,14,53,4.80
2020,01,04,14,54,4.80
2020,01,04,14,55,4.80
2020,01,04,14,56,4.80
2020,01,04,14,57,4.80
2020,01,04,14,58,4.80
2020,01,04,14,59,4.80
2020,01,04,15,00,4.80
2020,01,04,15,01,4.80
2020,01,04,15,02,4.90
2020,01,04,15,03,4.90
2020,01,04,15,04,4.90
2020,01,04,15,05,4.90
2020,01,04,15,06,4.90
2020,01,04,15,07,4.90
2020,01,04,15,08,4.90
2020,01,04,15,09,4.90
2020,01,04,15,10,4.90
2020,01,04,15,11,4.80
2020,01,04,15,12,4.80
2020,01,04,15,13,4.90
2020,01,04,15,14,4.80
2020,01,04,15,15,4.90
2020,01,04,15,16,4.90
2020,01,04,15,17,4.90
2020,01,04,15,18,4.90
2020,01,04,15,19,4.90
2020,01,04,15,20,4.90
2020,01,04,15,21,4.90
2020,01,04,15,22,4.90
2020,01,04,15,23,4.90
2020,01,04,15,24,4.90
2020,01,04,15,25,4.90
2020,01,04,15,26,4.90
2020,01,04,15,27,4.90
2020,01,04,15,28,4.90
2020,01,04,15,29,4.90
2020,01,04,15,30,4.90
2020,01,04,15,31,5.00
2020,01,04,15,32,5.00
2020,01,04,15,33,5.00
2020,01,04,15,34,5.00
2020,01,04,15,35,5.00
2020,01,04,15,36,5.00
2020,01,04,15,37,5.00
2020,01,04,15,38,5.00
2020,01,04,15,39,5.00
2020,01,04,15,40,5.00
2020,01,04,15,41,5.00
2020,01,04,15,42,5.00
2020,01,04,15,43,5.10
2020,01,04,15,44,5.10
2020,01,04,15,45,5.00
2020,01,04,15,46,5.10
2020,01,04,15,47,5.10
2020,01,04,15,48,5.10
2020,01,04,15,49,5.10
2020,01,04,15,50,5.10
2020,01,04,15,51,5.10
2020,01,04,15,52,5.00
2020,01,04,15,53,5.00
2020,01,04,15,54,5.00
2020,01,04,15,55,5.00
2020,01,04,15,56,5.00
2020,01,04,15,57,4.90
2020,01,04,15,58,4.90
2020,01,04,15,59,4.90
2020,01,04,16,00,4.90
2020,01,04,16,01,4.90
2020,01,04,16,02,4.90
2020,01,04,16,03,4.80
2020,01,04,16,04,4.80
2020,01,04,16,05,4.80
2020,01,04,16,06,4.80
2020,01,04,16,07,4.80
2020,01,04,16,08,4.80
2020,01,04,16,09,4.80
2020,01,04,16,10,4.80
2020,01,04,16,11,4.80
2020,01,04,16,12,4.80
2020,01,04,16,13,4.80
2020,01,04,16,14,4.70
2020,01,04,16,15,4.70
2020,01,04,16,16,4.70
2020,01,04,16,17,4.70
2020,01,04,16,18,4.70
2020,01,04,16,19,4.70
2020,01,04,16,20,4.70
2020,01,04,16,21,4.70
2020,01,04,16,22,4.70
2020,01,04,16,23,4.70
2020,01,04,16,24,4.70
2020,01,04,16,25,4.60
2020,01,04,16,26,4.60
2020,01,04,16,27,4.60
2020,01,04,16,28,4.60
2020,01,04,16,29,4.60
2020,01,04,16,30,4.60
2020,01,04,16,31,4.60
2020,01,04,16,32,4.60
2020,01,04,16,33,4.60
2020,01,04,16,34,4.50
2020,01,04,16,35,4.50
2020,01,04,16,36,4.50
2020,01,04,16,37,4.50
2020,01,04,16,38,4.50
2020,01,04,16,39,4.50
2020,01,04,16,40,4.40
2020,01,04,16,41,4.40
2020,01,04,16,42,4.40
2020,01,04,16,43,4.40
2020,01,04,16,44,4.40
2020,01,04,16,45,4.40
2020,01,04,16,46,4.40
2020,01,04,16,47,4.40
2020,01,04,16,48,4.40
2020,01,04,16,49,4.40
2020,01,04,16,50,4.40
2020,01,04,16,51,4.40
2020,01,04,16,52,4.40
2020,01,04,16,53,4.40
2020,01,04,16,54,4.30
2020,01,04,16,55,4.30
2020,01,04,16,56,4.30
2020,01,04,16,57,4.30
2020,01,04,16,58,4.30
2020,01,04,16,59,4.30
2020,01,04,17,00,4.30
2020,01,04,17,01,4.30
2020,01,04,17,02,4.30
2020,01,04,17,03,4.30
2020,01,04,17,04,4.30
2020,01,04,17,05,4.30
2020,01,04,17,06,4.30
2020,01,04,17,07,4.20
2020,01,04,17,08,4.20
2020,01,04,17,09,4.20
2020,01,04,17,10,4.20
2020,01,04,17,11,4.20
2020,01,04,17,12,4.20
2020,01,04,17,13,4.20
2020,01,04,17,14,4.20
2020,01,04,17,15,4.20
2020,01,04,17,16,4.20
2020,01,04,17,17,4.20
2020,01,04,17,18,4.20
2020,01,04,17,19,4.20
2020,01,04,17,20,4.20
2020,01,04,17,21,4.20
2020,01,04,17,22,4.20
2020,01,04,17,23,4.20
2020,01,04,17,24,4.20
2020,01,04,17,25,4.20
2020,01,04,17,26,4.20
2020,01,04,17,27,4.20
2020,01,04,17,28,4.20
2020,01,04,17,29,4.20
2020,01,04,17,30,4.20
2020,01,04,17,31,4.20
2020,01,04,17,32,4.20
2020,01,04,17,33,4.20
2020,01,04,17,34,4.20
2020,01,04,17,35,4.20
2020,01,04,17,36,4.20
2020,01,04,17,37,4.20
2020,01,04,17,38,4.20
2020,01,04,17,39,4.20
2020,01,04,17,40,4.20
2020,01,04,17,41,4.20
2020,01,04,17,42,4.20
2020,01,04,17,43,4.20
2020,01,04,17,44,4.30
2020,01,04,17,45,4.30
2020,01,04,17,46,4.30
2020,01,04,17,47,4.30
2020,01,04,17,48,4.30
2020,01,04,17,49,4.30
2020,01,04,17,50,4.30
2020,01,04,17,51,4.30
2020,01,04,17,52,4.30
2020,01,04,17,53,4.30
2020,01,04,17,54,4.30
2020,01,04,17,55,4.30
2020,01,04,17,56,4.30
2020,01,04,17,57,4.30
2020,01,04,17,58,4.30
2020,01,04,17,59,4.30
2020,01,04,18,00,4.30
2020,01,04,18,01,4.30
2020,01,04,18,02,4.30
2020,01,04,18,03,4.30
2020,01,04,18,04,4.30
2020,01,04,18,05,4.30
2020,01,04,18,06,4.30